Wind_Speed
41 41 41 40 39 39 39 40 40 39 37 36 36 36 36 35 35 35 34 35 35 35 35 34 34 33 33 33 33 32 32 31 30 30 30 30 30 29 29 29 29 29 28 28 28 28 28 28 28 27 26 26 27 26 27 27 27 27 26 25 24 21 20 19 16 17 23 24 22 21 19 17 19 21 23 24 25 26 29 31 32 33 33 33 32
41 40 39 39 39 39 39 39 39 38 36 36 36 36 35 35 34 33 33 34 35 35 36 35 34 34 34 34 34 34 34 33 32 32 32 32 32 31 31 31 31 31 30 30 31 30 30 31 31 30 28 29 29 28 28 28 27 29 29 28 27 25 23 22 21 19 22 25 24 24 22 20 21 22 22 24 25 26 28 30 31 33 34 35 34
41 40 39 39 40 40 39 39 38 37 36 36 36 36 35 35 34 33 33 34 34 35 36 35 35 34 34 35 35 35 35 35 34 34 34 34 33 33 32 32 32 32 32 33 33 32 32 32 33 32 31 31 31 31 30 29 28 29 30 30 30 30 27 25 24 22 23 26 26 25 24 24 25 25 25 25 25 25 27 29 30 32 34 35 36
39 39 38 39 39 38 37 37 36 37 37 37 36 36 36 35 35 35 35 34 33 35 35 35 35 35 35 36 36 36 36 36 36 35 35 35 34 34 34 33 34 34 34 35 34 33 32 33 35 34 33 32 33 33 32 31 31 30 31 31 31 32 31 28 28 27 25 26 27 27 26 25 26 25 25 26 26 27 28 28 29 31 34 35 36
37 37 37 37 36 36 36 35 35 36 37 37 37 37 37 36 35 35 35 34 34 34 34 34 35 35 36 37 38 38 37 37 37 37 36 36 35 35 35 35 35 35 36 36 34 33 33 35 36 35 32 32 34 35 34 33 32 32 33 33 33 32 32 30 30 30 29 28 30 30 28 26 27 27 26 25 26 27 29 30 30 31 33 35 36
37 37 37 36 35 36 36 36 37 38 38 38 38 38 37 36 36 36 36 36 35 35 34 34 35 36 38 38 38 38 38 37 38 38 37 36 35 36 35 36 36 36 37 36 35 35 35 36 37 35 33 33 35 36 35 33 32 32 33 34 35 33 31 31 31 30 31 31 32 32 31 29 28 28 29 28 26 27 29 30 32 32 33 35 37
37 37 37 36 36 38 39 40 40 40 40 40 39 38 38 37 37 36 36 36 36 36 35 35 36 37 38 38 38 38 37 37 38 38 37 37 36 36 37 37 37 37 37 37 36 35 36 37 37 35 35 36 37 37 34 31 31 32 33 34 33 31 31 31 31 30 30 30 30 31 32 31 29 29 30 28 26 28 29 29 31 33 34 36 38
37 37 37 37 38 39 40 40 40 40 40 39 39 38 38 38 38 37 37 37 37 37 36 36 37 37 38 38 38 37 36 37 38 38 38 38 37 37 38 38 38 38 38 37 36 35 36 37 37 37 37 37 38 38 35 32 30 30 33 33 32 30 30 31 30 29 29 28 28 30 30 28 28 29 29 25 24 29 31 30 32 35 34 35 38
37 37 37 37 38 38 38 38 38 38 38 37 38 38 38 38 38 38 38 38 38 38 37 37 37 37 38 38 38 37 36 38 40 40 39 39 38 38 38 38 38 38 38 37 36 35 36 36 37 37 38 38 38 38 37 35 33 33 34 33 32 31 30 30 29 28 28 27 27 28 26 25 27 29 29 28 28 32 32 29 31 35 33 31 35
37 36 36 37 37 37 37 37 37 37 37 37 38 38 37 37 37 38 38 38 37 37 37 36 36 37 37 38 38 37 38 40 42 42 41 40 39 38 38 38 38 38 37 36 35 36 36 36 37 37 37 38 38 39 39 39 37 37 37 36 34 32 31 30 29 28 27 26 27 27 23 24 28 30 31 34 34 33 32 28 30 32 28 25 32
36 36 36 36 36 36 36 36 36 36 37 37 37 37 37 36 37 37 37 37 37 37 36 36 36 37 37 37 38 38 39 42 43 43 43 42 41 39 37 37 37 36 36 36 36 36 35 35 36 37 37 38 39 40 40 41 41 41 41 40 38 36 34 32 30 29 27 27 28 27 24 26 31 32 32 35 35 33 32 30 29 28 24 21 24
35 35 36 36 36 36 36 36 36 36 36 37 37 37 37 37 37 37 37 37 36 36 37 37 37 37 37 38 38 39 40 42 43 43 43 43 42 41 39 36 35 35 35 36 36 36 35 35 36 36 37 38 39 40 40 41 41 41 42 42 41 41 40 38 35 31 29 29 29 29 28 30 33 33 32 34 35 33 31 30 30 30 28 26 25
34 35 36 36 36 37 37 36 36 36 37 38 38 37 37 37 37 37 37 36 35 36 38 38 38 38 38 38 39 39 40 41 42 42 43 43 43 42 40 38 35 35 35 35 36 36 36 36 35 36 37 38 38 38 38 39 40 40 40 41 41 43 44 44 42 39 37 34 31 33 34 33 34 37 37 36 35 33 30 30 32 33 32 31 33
34 36 36 36 37 37 37 36 36 37 37 38 37 37 37 38 38 38 36 36 36 37 38 38 39 39 39 40 40 40 41 41 42 42 43 43 42 41 41 40 38 37 36 35 35 36 37 36 35 36 37 36 36 36 36 37 38 38 38 38 40 42 43 44 44 43 44 42 39 41 42 39 39 43 44 40 37 36 35 34 35 36 35 35 38
34 35 36 36 36 36 36 36 36 37 37 37 37 37 38 38 38 37 36 37 38 38 38 38 39 39 39 40 39 40 42 42 41 42 42 43 42 41 41 41 40 39 38 37 37 37 37 35 35 37 37 36 35 35 35 35 36 37 37 37 38 40 41 41 41 42 44 45 46 49 49 46 46 48 49 46 43 44 43 40 40 39 34 33 35
33 34 34 34 35 36 36 36 36 36 36 36 36 36 37 37 37 37 37 37 37 38 38 38 38 38 39 39 39 41 42 42 41 41 41 41 40 40 40 40 40 40 40 39 38 37 36 35 35 37 37 36 36 35 35 35 35 36 36 37 38 39 39 38 38 40 42 43 45 48 49 50 50 52 53 50 48 47 44 40 40 35 28 27 30
32 33 33 34 35 36 37 37 36 36 36 35 36 36 37 38 38 38 37 36 36 37 38 38 38 38 38 38 39 41 42 41 41 41 41 39 38 38 39 40 40 40 41 40 39 38 37 37 36 36 36 36 36 36 35 34 35 36 36 36 37 37 36 35 36 39 40 41 43 45 46 49 49 52 55 53 52 50 41 36 38 32 26 24 23
32 33 33 34 35 36 37 38 37 37 36 36 36 37 37 38 38 38 37 37 37 37 37 37 38 38 38 39 40 41 41 41 40 40 40 38 37 38 39 39 39 39 40 40 39 38 38 38 36 36 36 37 37 37 35 34 35 36 36 36 36 35 33 31 33 35 36 37 39 40 43 46 47 50 52 51 54 53 44 42 42 34 27 24 23
32 33 34 35 36 37 38 38 39 38 37 37 37 38 38 39 38 38 37 37 37 37 36 36 36 37 38 39 40 40 40 39 39 39 39 37 36 37 38 37 37 37 38 38 38 37 37 38 38 37 38 39 39 38 37 36 37 37 36 35 34 34 34 32 32 33 33 33 35 36 39 44 45 48 49 49 52 54 50 50 49 40 31 29 28
34 34 35 36 37 38 38 38 39 38 37 38 38 38 39 38 37 36 36 36 36 35 34 34 34 35 36 37 38 40 40 39 39 39 38 37 36 36 36 37 37 37 37 36 36 36 36 37 37 38 39 40 40 39 39 38 38 38 35 32 32 36 37 34 31 31 31 31 32 33 36 41 41 42 44 46 48 50 49 50 51 48 42 37 34
29 31 33 34 36 36 37 38 38 38 38 38 38 38 37 36 36 35 35 35 34 33 33 33 33 33 34 35 36 38 39 39 39 38 38 37 36 36 36 37 38 37 36 35 35 35 35 35 36 38 38 38 38 37 37 36 35 36 36 34 36 39 39 35 33 31 30 31 31 31 33 38 40 39 40 42 43 43 44 45 47 50 49 45 40
22 25 27 30 32 34 35 36 36 37 37 36 35 35 35 35 35 35 34 33 32 32 32 31 31 31 32 33 34 36 37 38 38 37 37 37 36 36 37 38 37 37 36 34 34 34 35 35 35 34 34 33 32 31 30 30 30 31 33 33 35 36 35 34 34 33 33 33 32 32 33 37 39 41 41 41 41 41 41 40 41 44 48 50 49
17 21 24 27 29 31 33 34 35 35 35 35 34 34 34 34 34 33 33 32 31 30 30 30 29 29 29 30 32 34 35 36 36 36 36 36 37 37 37 37 36 36 36 35 34 34 33 31 29 29 28 27 26 25 24 24 25 26 27 27 27 27 27 27 28 28 29 29 28 30 32 34 36 38 40 42 44 44 43 43 42 42 43 47 51
12 18 23 26 29 30 32 33 33 33 34 34 33 33 32 32 32 32 32 30 29 28 28 28 27 26 26 28 29 32 33 34 35 35 35 36 36 36 37 36 35 35 36 35 33 30 27 25 24 24 24 23 22 22 21 21 22 23 24 24 24 24 24 23 23 23 23 23 24 27 30 31 32 35 38 41 44 45 47 48 46 44 43 43 46
10 15 20 23 26 29 30 31 32 33 33 33 33 32 31 30 30 30 30 29 28 26 26 26 26 25 25 26 28 30 32 33 33 33 33 34 34 34 34 34 34 35 36 34 31 28 26 24 22 21 20 19 19 19 20 21 21 22 22 22 22 21 20 19 19 18 18 20 22 25 28 30 31 34 37 39 41 43 46 47 47 44 43 42 44
8 13 17 21 23 26 28 29 31 32 31 32 32 32 31 30 29 28 28 28 27 26 25 25 25 24 24 25 27 28 29 29 30 30 30 30 31 31 32 32 32 33 35 35 33 30 26 23 21 20 20 19 20 20 20 19 18 18 17 17 16 16 15 15 15 15 16 19 21 23 27 29 31 33 35 36 39 41 43 44 44 43 41 40 40
5 9 14 18 20 22 25 27 28 29 29 30 31 31 31 30 29 27 27 27 25 24 24 23 23 22 22 23 25 26 26 25 26 26 26 27 28 29 30 31 31 32 33 33 32 29 26 22 20 19 18 16 15 14 13 12 11 11 11 11 11 12 12 12 12 13 15 18 20 23 26 28 30 31 32 34 37 40 40 39 39 40 40 38 38
4 6 9 13 17 19 22 24 24 25 25 25 25 25 24 25 25 25 26 26 25 24 24 23 23 24 24 24 24 22 22 23 24 24 24 25 25 26 27 28 29 30 29 27 24 21 18 15 12 10 9 8 7 6 7 7 8 8 8 9 11 13 14 14 14 15 17 18 20 23 25 27 29 31 31 32 35 38 39 37 37 39 40 37 35
5 5 7 9 13 16 18 20 21 22 22 21 19 17 17 19 21 21 21 23 25 25 25 26 27 27 27 26 24 22 21 22 24 23 22 22 22 23 24 24 24 23 20 16 13 12 10 8 7 6 4 4 4 4 5 6 6 7 9 11 13 15 16 17 18 19 20 20 21 23 25 27 29 31 32 33 36 38 40 39 38 40 39 36 34
7 5 6 8 11 13 15 17 19 21 22 21 18 15 12 13 15 16 17 20 23 24 24 25 27 28 27 26 25 24 24 24 23 20 19 18 18 18 17 17 16 15 14 12 12 11 10 8 5 3 2 1 2 3 5 6 8 10 11 13 15 17 18 19 20 20 21 22 23 24 26 27 29 31 33 35 37 39 40 40 40 39 37 34 33
7 6 6 8 10 13 15 18 19 21 21 21 20 18 14 10 9 11 14 16 19 21 22 23 24 25 25 24 22 21 20 20 19 18 17 16 15 15 15 15 15 14 14 13 11 10 9 7 5 3 2 2 3 4 6 8 10 12 14 15 16 18 19 19 20 20 21 22 23 25 26 26 28 30 32 33 36 39 40 40 39 37 35 34 32
6 6 6 7 10 13 16 19 20 21 21 21 20 19 17 14 10 6 6 10 13 16 18 19 19 21 22 23 22 18 15 16 18 18 17 17 17 17 16 15 14 13 12 11 10 9 8 7 6 4 4 4 5 6 7 9 11 12 14 15 17 18 19 19 19 20 20 21 23 24 25 26 26 28 30 32 34 36 38 39 38 35 33 32 31
4 6 6 7 10 13 16 18 20 22 22 22 21 20 19 17 15 14 11 7 6 8 10 12 14 16 18 19 18 17 18 20 21 20 19 18 18 17 16 14 13 12 11 11 11 10 8 7 7 6 5 5 5 6 7 9 10 11 12 13 15 18 19 19 20 20 21 22 23 23 24 24 25 26 30 32 33 34 35 36 36 35 31 27 25
3 4 7 9 12 15 17 19 20 21 22 22 22 20 19 19 19 19 18 15 13 11 9 9 10 13 15 16 16 20 23 23 22 21 20 19 18 17 16 15 14 11 10 11 12 10 8 7 7 6 6 5 5 6 7 8 9 11 12 13 15 17 19 20 20 21 22 23 23 23 24 24 24 25 27 30 32 33 34 34 33 32 29 25 22
2 0 4 8 11 14 17 19 20 21 20 19 18 17 17 18 19 20 20 20 20 19 19 18 17 18 20 22 22 24 24 22 21 21 20 19 18 16 15 15 14 12 10 10 9 8 7 7 7 6 6 5 5 5 6 8 9 10 11 13 15 16 18 19 20 21 22 22 22 23 24 23 23 23 25 27 29 30 31 32 33 30 26 21 18
7 5 4 6 9 11 13 15 18 20 19 18 17 18 19 20 21 22 22 22 22 22 23 24 23 23 24 25 26 25 25 23 22 20 19 17 15 13 13 14 14 13 11 10 8 7 6 6 6 6 5 5 6 7 8 8 9 10 10 12 14 16 18 19 19 20 21 21 21 22 22 22 22 22 23 25 27 27 28 29 30 29 25 20 15
8 8 7 7 9 11 13 13 15 17 19 20 21 22 22 22 22 23 23 23 22 22 22 23 23 22 22 23 24 24 24 23 22 20 18 16 14 12 13 14 14 13 11 10 8 7 6 5 6 6 6 7 9 10 9 9 9 10 11 12 14 15 16 17 18 18 19 20 21 20 20 20 19 19 21 23 25 26 27 27 26 26 25 23 21
10 9 9 11 11 13 15 16 17 18 20 21 23 24 25 24 23 23 24 26 26 24 21 20 20 19 18 19 21 22 22 21 19 18 16 15 14 13 14 14 13 12 10 9 8 8 7 6 6 7 8 10 11 11 10 9 10 10 12 13 14 14 15 16 17 17 17 18 18 17 16 17 17 18 19 21 22 23 24 24 25 25 25 26 25
15 14 13 14 16 17 18 19 20 20 20 21 22 24 25 25 25 25 24 24 24 23 20 18 17 15 14 17 19 20 20 19 17 16 15 13 12 12 12 12 11 11 10 8 7 7 7 7 8 8 9 11 12 11 10 10 11 11 12 13 14 14 15 15 16 16 16 16 15 14 13 14 14 15 16 18 19 20 21 22 23 23 24 24 24
19 19 18 19 21 21 20 20 21 21 21 21 20 21 21 21 21 23 24 23 22 22 22 21 18 14 13 16 17 17 17 16 14 13 13 12 12 12 11 11 10 10 9 8 7 6 7 7 7 8 9 11 11 11 11 11 12 12 13 13 13 14 15 15 15 15 15 15 13 12 11 12 13 13 14 14 15 15 17 19 20 21 21 21 22
22 22 22 22 23 24 23 22 22 22 23 22 21 21 21 21 21 23 25 25 23 23 24 25 23 20 17 17 17 17 17 17 16 15 15 15 15 14 12 11 11 10 10 10 9 9 8 8 8 8 9 11 11 12 12 12 12 13 13 13 13 14 14 14 15 15 14 13 12 11 11 11 11 12 12 11 10 11 13 15 16 18 19 19 21
23 23 23 23 24 25 25 24 23 24 25 25 24 23 24 25 25 25 26 25 23 23 24 24 24 23 23 21 19 19 20 20 19 19 19 18 17 15 14 12 12 12 12 12 12 12 10 9 9 9 10 11 11 12 12 12 13 13 13 13 13 14 15 15 15 15 14 13 13 12 11 10 10 10 9 9 8 8 9 11 13 15 17 17 18
25 24 24 24 25 26 25 25 26 26 26 26 27 28 28 28 28 27 27 27 26 26 26 24 23 24 24 22 21 21 21 21 20 19 18 17 16 16 16 14 13 12 11 12 12 11 11 10 10 10 10 10 11 11 11 12 12 13 13 13 14 14 15 15 15 15 14 14 13 13 11 10 9 9 8 7 7 6 6 7 9 12 14 14 15
28 29 27 27 28 28 28 29 29 28 26 27 30 32 32 32 31 29 28 27 26 26 26 24 24 24 24 22 21 22 21 20 19 18 17 17 17 17 17 15 13 12 11 12 11 10 10 10 10 10 9 9 9 9 9 10 11 12 13 13 14 15 15 16 15 15 14 14 14 13 12 11 9 8 7 6 5 5 5 5 6 8 9 9 10
25 28 29 29 29 30 30 31 31 30 29 29 30 31 31 31 31 29 26 24 23 23 24 24 25 25 24 23 22 22 21 20 19 18 17 17 17 17 17 15 13 12 12 11 11 10 9 9 9 9 9 8 8 8 8 9 10 11 11 12 13 14 15 15 15 15 14 14 14 14 13 11 10 8 7 6 4 4 3 3 3 3 4 5 7
21 23 25 27 28 30 31 29 28 29 30 30 30 29 28 28 27 25 23 21 20 20 22 24 25 25 25 24 24 23 21 20 20 18 17 17 17 17 16 15 13 12 12 11 10 10 9 9 9 9 8 8 8 8 8 9 9 10 11 10 10 11 11 12 14 14 13 12 13 12 12 11 10 8 7 6 4 3 2 1 1 0 2 4 6
23 23 23 23 25 27 28 27 26 26 26 27 27 27 25 24 24 23 22 22 22 23 23 24 24 24 23 23 23 23 22 21 20 18 17 16 16 16 16 15 14 13 12 12 11 10 10 10 9 8 8 8 8 8 8 9 9 9 10 10 10 10 10 10 12 13 13 12 12 12 12 11 9 8 8 7 6 5 4 3 2 1 1 3 4
26 26 25 24 23 23 23 24 26 27 25 25 26 26 24 23 23 23 22 23 24 24 24 24 23 22 22 22 22 22 22 22 22 21 19 18 18 17 17 16 16 16 15 14 13 13 12 12 11 11 10 9 9 9 10 10 10 10 10 10 10 11 11 10 11 12 13 13 11 11 11 11 10 9 8 9 9 8 7 6 5 3 2 2 2
31 30 28 27 27 25 23 22 24 26 26 25 26 26 25 23 23 21 21 22 22 22 23 23 22 21 20 20 20 20 21 21 22 22 22 22 21 21 20 20 20 20 19 18 17 16 16 15 15 14 14 13 13 12 12 12 12 12 12 12 12 11 11 10 10 10 11 11 11 10 10 11 11 11 10 10 10 10 10 8 7 6 5 5 4
37 35 32 30 29 28 26 25 24 24 25 26 28 29 29 28 25 23 22 23 23 22 22 23 22 21 21 20 19 20 21 21 21 22 22 22 23 23 23 24 24 23 23 22 21 20 19 19 18 17 17 16 15 15 15 15 15 14 14 14 13 11 10 10 10 10 10 10 11 11 11 11 11 11 11 11 11 11 10 10 9 9 8 8 7
38 38 37 34 32 31 31 29 28 26 25 26 29 31 33 32 30 29 28 28 26 25 24 24 22 22 22 21 20 20 21 21 21 22 22 22 22 22 22 23 24 24 24 24 23 22 22 21 20 19 19 19 18 17 17 16 16 15 14 13 12 11 10 10 10 10 10 10 9 10 11 11 11 10 11 11 11 11 11 11 11 10 10 10 9
Wind_Direction
200 201 202 203 204 205 207 209 211 212 213 213 214 215 217 218 219 220 221 222 224 225 227 228 228 229 230 231 233 234 237 237 237 238 238 240 242 243 243 242 243 245 245 246 246 246 248 249 253 255 255 256 257 256 254 251 251 252 254 257 259 260 256 245 241 261 270 269 271 273 270 265 261 260 261 263 263 261 260 260 259 257 255 254 253
200 202 202 202 204 205 207 209 211 212 212 213 215 216 217 218 220 220 221 223 224 226 228 229 229 229 230 231 232 233 236 237 237 237 237 239 240 241 242 241 242 244 244 245 246 246 247 248 251 254 254 255 257 257 257 255 254 254 254 256 257 258 258 252 247 255 268 271 270 271 270 266 264 264 264 264 265 265 264 263 262 260 258 257 255
201 202 201 203 205 206 207 208 209 211 212 214 216 217 218 219 220 221 223 224 225 227 228 229 229 229 229 231 232 233 234 236 237 237 237 237 238 239 239 239 240 242 243 245 245 245 245 246 250 252 252 254 255 256 257 256 255 255 255 255 257 258 259 257 253 253 263 271 272 270 270 268 267 268 269 268 269 269 267 266 264 263 261 260 257
200 201 202 203 205 205 207 208 208 210 212 214 216 217 219 220 220 222 224 224 226 227 228 229 228 228 228 230 231 232 233 234 235 236 237 238 238 238 239 238 239 240 242 244 245 244 243 245 249 251 250 251 254 255 255 255 255 256 256 256 257 258 258 258 256 255 258 266 271 271 271 271 271 271 270 269 269 268 268 268 266 264 263 261 259
199 200 202 203 204 205 206 207 208 210 212 214 216 218 219 220 221 222 224 224 226 227 227 228 228 228 229 230 231 231 231 232 232 234 236 238 239 239 239 239 239 241 242 244 244 244 244 246 249 250 248 249 252 254 254 254 254 254 256 257 257 258 258 257 257 256 255 259 266 270 272 271 272 273 271 269 268 266 265 265 264 263 262 261 259
198 200 201 202 202 204 205 206 209 211 213 215 216 218 218 219 220 222 223 224 225 226 226 227 227 228 230 231 231 231 231 231 231 233 234 236 238 240 240 240 241 241 242 243 244 244 245 247 250 250 248 249 252 253 253 253 253 253 254 256 257 258 258 258 257 256 255 257 262 267 269 269 269 271 271 270 269 268 266 264 263 260 259 258 257
198 199 200 201 202 204 205 207 209 211 213 215 216 217 218 219 220 221 223 224 225 226 226 226 227 229 231 231 232 232 232 232 232 233 234 235 236 238 240 241 242 242 243 244 244 244 246 248 250 250 249 250 253 254 254 252 252 254 255 256 257 256 257 258 258 257 256 257 260 264 267 269 269 270 271 270 269 268 265 262 260 258 255 254 254
197 199 200 201 203 205 206 208 209 211 213 214 216 217 218 219 219 221 222 223 225 225 226 227 228 230 231 232 232 232 232 233 234 234 235 235 235 236 238 239 241 243 244 245 245 245 246 248 250 250 251 252 254 255 256 254 253 255 258 258 257 256 255 257 257 257 257 257 259 262 265 267 269 270 271 267 261 261 260 256 256 258 255 253 255
197 198 200 202 204 206 207 208 210 212 213 214 216 217 218 219 219 221 222 223 224 226 226 228 229 230 232 233 233 233 233 234 236 236 236 235 235 236 237 238 239 242 244 245 246 246 247 249 250 251 253 254 256 258 259 258 256 256 259 260 258 256 255 255 255 255 256 257 260 263 265 266 266 267 267 262 257 259 261 257 256 259 259 257 258
197 198 200 203 205 206 207 208 210 211 212 214 216 217 218 219 219 221 222 223 224 225 226 228 229 231 232 233 234 234 233 235 237 237 237 236 236 236 236 237 238 240 242 244 246 247 248 249 251 253 255 257 259 260 261 261 259 258 260 259 257 256 253 252 252 252 253 255 258 260 261 262 262 262 262 264 263 263 261 256 255 260 261 260 262
196 198 201 204 205 206 207 208 209 210 212 213 215 217 218 218 220 221 222 223 225 225 226 228 228 230 232 234 234 234 235 237 238 238 239 238 237 236 236 238 238 239 241 243 245 247 248 250 252 254 255 257 259 260 262 262 262 261 262 261 259 257 254 252 252 251 250 251 256 258 257 259 263 262 261 265 266 262 259 256 254 256 254 251 258
195 198 202 203 204 205 206 207 209 210 212 213 215 216 217 218 220 221 222 223 224 225 227 228 229 230 232 234 235 235 236 238 239 240 240 240 239 238 237 238 239 240 241 242 244 247 248 250 252 253 254 256 258 260 261 262 263 263 263 263 262 260 258 256 254 253 251 251 254 256 255 258 263 263 261 263 264 262 259 255 251 250 247 243 245
195 198 202 203 204 205 206 206 208 210 211 213 215 215 216 217 219 220 222 223 224 226 227 228 229 231 232 233 235 236 238 239 240 241 241 242 241 239 238 239 240 241 242 243 244 246 248 249 251 252 254 255 257 258 259 262 264 264 264 265 263 262 262 260 258 257 256 254 255 257 257 258 261 264 264 263 262 260 257 253 250 248 243 242 245
195 199 202 203 204 205 205 206 207 209 211 212 213 214 215 217 219 220 221 222 223 225 227 228 229 231 232 234 236 238 240 240 241 242 242 243 243 242 240 240 242 243 244 244 245 246 248 248 249 252 254 254 255 256 257 259 262 263 264 264 264 264 264 262 260 259 258 256 255 258 260 259 259 264 267 264 259 257 255 253 253 251 247 250 254
197 200 202 203 204 204 205 206 208 210 211 211 212 213 215 217 218 219 220 221 223 225 226 228 229 231 232 234 236 239 241 241 242 243 243 244 244 244 242 241 242 244 246 247 247 248 249 249 249 252 255 255 255 256 256 258 260 261 262 262 263 265 265 264 263 264 262 260 259 261 263 263 262 264 266 263 260 260 259 258 259 259 258 259 260
198 201 202 202 204 204 205 206 208 209 210 210 211 212 214 217 218 219 220 221 224 226 227 228 229 231 232 233 235 239 241 242 242 243 244 245 244 244 243 242 243 244 246 248 248 249 250 250 250 252 255 256 257 258 258 259 259 260 261 262 263 264 264 265 266 267 267 265 264 265 267 268 267 267 266 264 261 262 262 262 260 259 257 257 258
199 201 202 203 204 205 205 206 207 209 209 209 210 212 214 216 218 218 219 220 222 225 226 228 230 231 232 233 234 237 241 242 242 243 245 245 244 243 243 242 242 244 246 248 249 250 251 251 251 252 254 256 258 259 260 260 258 258 260 262 263 263 263 265 267 267 267 267 267 268 270 271 271 270 269 267 264 262 260 258 258 252 244 246 254
201 202 204 204 205 206 206 207 208 209 209 209 210 212 214 216 218 218 218 219 222 224 226 228 230 231 232 233 234 237 240 242 242 243 244 244 243 242 242 241 242 244 247 249 250 250 252 253 253 253 254 257 259 260 261 260 258 258 259 261 263 264 265 267 268 269 269 269 269 269 270 271 271 270 270 269 268 263 256 253 257 254 241 238 245
203 203 205 206 207 208 208 208 209 209 210 210 211 213 215 217 218 218 218 219 222 224 225 227 229 230 232 233 235 237 240 242 242 243 244 243 242 242 241 239 240 243 246 248 250 251 252 253 254 254 255 258 259 261 261 260 259 259 259 261 263 267 270 271 270 271 271 270 269 269 270 271 270 269 269 270 269 265 258 254 256 256 249 244 242
206 206 207 208 209 210 209 209 210 210 211 212 213 214 216 217 218 218 218 220 223 225 225 226 228 230 231 233 235 237 239 241 242 243 243 242 241 242 240 237 238 241 244 246 249 251 252 253 254 255 257 259 260 261 262 261 261 261 260 259 263 270 274 275 274 274 273 272 272 272 273 275 274 272 270 270 269 266 261 257 255 253 251 248 244
210 210 210 209 210 211 211 210 211 212 213 214 215 215 216 217 217 217 218 219 221 223 224 225 227 230 231 232 234 237 239 240 242 243 243 242 242 241 239 237 238 241 243 245 247 249 251 253 255 257 259 261 262 263 264 264 264 264 263 262 265 270 274 275 275 276 275 275 275 274 275 277 278 277 275 273 270 268 264 260 257 254 251 248 246
217 215 214 212 211 211 212 213 213 213 215 214 214 215 216 217 217 218 218 219 220 222 223 224 226 228 231 231 233 236 238 240 241 242 242 242 242 241 240 241 242 241 241 243 245 247 250 253 255 258 261 262 264 265 266 267 267 267 268 269 271 273 274 276 277 278 278 279 279 278 277 277 278 279 278 277 277 276 272 267 263 258 254 251 248
221 220 218 216 215 213 213 214 214 214 215 214 214 215 216 216 217 217 217 218 219 220 222 223 224 226 229 231 233 235 238 240 241 241 242 243 243 243 243 244 245 243 241 242 245 248 251 253 255 258 260 262 264 266 269 270 271 272 273 275 277 279 281 283 284 285 286 285 284 281 279 279 279 279 281 282 283 283 282 279 274 268 263 258 254
220 221 219 217 216 214 214 215 214 215 215 214 214 215 215 215 215 216 216 216 217 219 220 221 222 223 226 230 232 234 237 240 241 242 243 244 244 245 246 246 247 246 244 244 246 248 250 252 253 256 258 261 264 267 269 270 271 274 276 279 282 285 288 290 292 294 294 291 287 284 283 283 282 281 282 284 286 287 286 284 282 277 272 268 262
228 224 221 218 216 214 213 213 214 215 214 213 213 214 214 214 214 214 215 215 215 217 218 218 219 220 223 226 230 233 236 238 240 241 242 243 244 246 247 247 248 246 244 243 244 246 247 249 250 252 255 258 261 265 268 270 272 275 278 282 286 289 293 297 300 301 297 290 287 285 285 286 285 284 286 287 287 287 286 284 283 281 277 273 268
246 233 227 224 220 215 211 210 211 213 213 213 214 214 214 213 213 212 212 213 214 216 217 217 217 218 221 224 228 232 234 235 236 238 238 239 240 241 242 244 244 244 243 242 242 243 244 245 248 252 257 261 265 267 269 272 275 279 282 287 292 297 304 308 308 305 297 291 291 290 289 291 291 289 290 290 288 287 286 285 286 284 282 278 274
278 249 235 229 223 216 211 208 207 207 208 210 213 215 215 214 213 212 210 210 212 214 215 215 215 215 218 222 226 230 231 230 230 231 232 233 235 236 237 238 238 239 240 241 241 242 245 249 254 258 261 262 263 265 269 275 283 288 294 303 311 319 327 329 323 314 305 299 298 296 296 298 298 296 296 296 293 292 291 290 289 288 286 284 279
315 275 252 236 226 219 214 209 204 201 202 205 208 211 212 214 214 215 213 211 210 212 212 213 214 215 216 219 221 222 222 223 225 226 228 230 231 231 231 232 233 235 237 239 238 239 241 243 242 241 241 242 247 260 275 285 297 309 319 331 338 341 344 342 333 324 317 311 306 302 302 303 301 300 299 296 293 294 294 292 288 286 286 285 279
326 284 265 246 230 221 214 208 201 195 192 192 194 196 203 209 213 216 217 216 215 216 215 214 216 218 219 219 217 212 213 220 225 226 228 228 229 230 230 229 228 227 226 223 216 205 196 194 194 200 215 238 262 285 299 310 326 337 343 347 348 349 349 346 339 333 328 322 313 308 307 307 304 303 301 296 294 295 295 292 288 285 284 281 276
324 279 256 243 229 217 207 200 195 190 185 180 176 174 180 197 206 209 213 216 219 221 221 222 224 225 223 222 220 218 222 226 223 219 217 216 215 218 215 207 201 194 185 179 176 171 168 166 168 183 218 273 311 331 348 355 355 352 351 351 352 352 350 345 340 334 328 324 318 314 312 310 307 306 304 301 299 300 299 295 291 288 285 279 275
318 280 250 235 223 209 197 190 186 183 180 176 172 166 159 162 183 199 208 213 217 220 222 225 228 229 228 224 220 219 225 225 211 198 193 188 182 178 172 166 164 163 164 166 163 156 155 150 137 125 117 74 35 20 18 13 5 359 355 351 351 350 344 337 335 332 328 324 322 319 315 311 309 309 308 305 304 303 303 302 298 292 285 278 274
303 273 253 233 214 200 191 185 180 176 173 170 170 167 157 141 126 132 183 209 216 219 221 223 226 229 228 226 219 210 203 198 188 178 172 167 163 160 156 155 155 156 161 165 154 139 137 136 124 105 84 66 47 30 19 10 2 356 349 342 340 339 335 332 333 333 330 328 325 321 318 316 315 316 314 312 310 308 308 308 305 298 289 279 273
281 253 236 217 201 191 185 181 177 174 171 169 169 169 166 156 135 115 110 130 168 193 205 212 219 218 212 211 208 191 173 168 168 165 162 159 157 155 153 151 149 151 157 155 140 127 123 121 108 89 68 53 34 17 9 360 351 345 339 331 328 328 331 335 338 338 336 333 327 321 320 323 325 325 321 318 318 318 315 314 312 307 300 290 280
282 243 222 206 195 188 185 182 179 176 174 173 172 171 169 164 151 134 120 112 108 112 128 151 177 185 177 172 169 161 154 153 153 152 151 149 147 147 147 141 134 133 139 137 127 118 110 98 85 71 58 44 23 4 356 350 342 336 332 326 323 326 334 341 344 343 339 334 328 326 328 332 332 329 325 324 327 326 322 322 322 317 309 302 293
29 218 202 198 191 185 183 181 178 174 171 170 168 164 157 149 143 135 128 122 115 111 111 118 128 138 140 140 141 141 141 140 138 137 136 134 133 135 133 125 116 110 109 109 109 107 99 84 70 56 44 33 17 360 349 344 340 335 329 326 328 334 340 344 344 341 336 331 330 333 336 337 336 335 332 331 332 330 327 329 333 331 323 316 311
61 74 123 167 173 170 171 173 172 169 165 161 155 147 140 135 132 130 127 123 117 113 111 113 115 118 121 123 124 125 125 124 122 121 118 117 121 125 120 110 105 101 97 93 93 95 91 77 65 53 35 19 9 2 355 349 344 338 335 335 337 340 343 343 342 340 337 335 337 341 341 340 341 344 344 341 339 338 337 339 343 346 348 351 360
75 81 97 121 142 150 151 154 157 156 152 147 141 134 129 127 127 125 120 113 107 105 106 110 114 115 115 116 116 116 117 117 115 113 110 107 106 108 107 106 106 107 106 101 93 84 75 65 57 44 25 13 8 4 360 356 351 348 348 347 345 345 345 342 341 343 343 341 342 344 344 344 349 354 354 351 350 350 350 353 357 1 6 14 23
99 105 113 118 125 132 133 134 136 137 136 134 132 128 125 121 118 115 112 110 108 107 106 109 114 117 121 124 125 123 122 120 115 111 108 106 104 103 103 104 103 101 100 95 84 72 63 55 45 30 15 9 7 4 1 2 1 358 355 351 348 347 346 344 345 348 347 343 342 345 347 348 354 359 360 0 1 1 3 10 16 17 20 25 29
105 111 120 124 122 120 120 121 122 122 121 121 122 122 120 118 116 113 110 108 106 104 103 102 103 110 125 136 136 131 127 125 122 117 115 116 118 113 103 94 88 83 80 80 76 65 54 45 36 23 10 4 3 5 9 11 9 4 358 353 349 348 346 344 345 348 347 342 341 346 352 353 352 355 2 10 13 14 18 28 35 35 34 36 39
110 111 115 120 120 118 118 117 117 117 116 116 117 116 112 110 112 112 108 103 98 96 96 92 88 94 120 137 141 137 129 124 123 123 120 119 118 108 91 77 70 67 65 64 60 51 43 39 30 17 8 3 4 11 16 14 8 3 359 355 350 347 346 345 345 344 343 340 338 342 350 355 351 352 2 15 21 24 31 40 49 55 56 55 58
115 114 113 114 117 117 115 112 112 115 116 115 113 108 103 102 104 104 102 100 97 94 91 86 82 88 105 122 133 131 119 109 105 103 101 99 97 90 79 67 61 59 55 51 47 43 40 36 26 16 12 9 8 11 13 10 4 1 359 357 353 350 349 349 346 342 338 336 337 340 345 352 354 356 5 17 24 32 44 50 58 67 72 73 76
116 114 112 112 112 110 107 104 106 109 110 108 106 103 101 102 103 101 99 98 96 94 90 84 82 88 95 104 113 115 107 99 96 94 90 88 86 81 75 69 65 61 54 47 44 42 40 37 30 23 18 13 8 7 6 1 358 357 355 355 356 355 354 350 346 342 336 333 334 338 341 347 356 1 8 17 24 36 52 59 65 76 83 87 91
119 114 110 110 109 106 103 103 103 104 103 103 105 105 104 104 102 99 97 95 94 92 89 83 81 84 89 94 102 105 99 94 91 88 85 84 81 77 72 69 68 67 61 53 46 43 42 43 38 31 24 17 10 7 2 357 355 355 355 357 360 359 357 353 347 342 338 334 334 336 339 343 351 360 7 17 27 41 62 76 81 89 97 103 106
117 115 111 108 107 106 105 104 102 100 100 101 103 103 104 103 100 96 93 90 88 86 85 83 82 83 83 86 92 93 89 85 84 83 80 78 75 72 69 67 67 68 66 60 52 46 46 47 44 38 34 28 22 18 13 7 3 1 1 2 4 2 360 357 352 345 339 335 333 334 336 340 345 353 3 13 25 40 62 84 95 100 107 113 116
107 110 109 107 105 105 105 105 105 104 102 100 97 96 96 97 96 94 91 88 85 83 81 81 82 81 79 79 81 81 79 78 78 77 76 75 72 71 72 72 69 67 67 66 61 55 51 51 49 47 46 43 39 38 35 28 22 17 13 10 8 4 360 357 353 346 339 333 330 328 330 335 339 344 351 358 9 29 51 74 98 113 123 128 129
91 95 98 100 101 101 101 101 102 103 102 100 97 93 91 90 90 89 88 86 84 82 80 78 79 78 76 75 76 74 72 72 71 70 72 74 73 72 74 76 75 73 72 73 71 65 60 57 55 53 51 51 52 51 48 41 34 28 23 17 10 4 357 354 353 351 342 334 330 327 325 326 332 339 342 341 336 336 351 9 352 204 164 149 142
82 81 84 87 91 93 95 96 96 94 94 94 94 92 90 89 88 87 85 85 85 83 79 76 75 75 74 74 74 72 70 69 68 67 68 70 71 73 75 78 80 79 77 75 74 71 66 62 60 57 55 54 54 52 49 43 36 29 24 18 8 1 354 349 351 355 352 344 336 330 323 319 320 328 334 331 322 311 302 299 303 291 221 174 160
80 77 77 78 78 79 82 87 90 90 88 86 85 84 84 84 84 83 83 84 84 83 80 76 74 72 72 72 72 71 70 69 69 69 68 69 70 71 72 74 76 76 74 74 71 69 67 64 61 59 56 52 49 47 45 42 39 34 29 23 13 6 359 350 345 350 355 354 348 342 338 335 332 330 326 321 318 314 307 298 294 287 270 240 198
74 72 70 71 72 71 70 75 82 86 88 88 86 83 80 78 75 74 74 76 76 76 77 77 74 71 71 70 70 69 68 66 66 66 67 70 72 72 70 71 71 70 68 67 65 62 62 62 60 58 56 52 49 47 43 40 38 34 28 23 16 9 4 359 352 351 356 358 355 351 349 349 349 350 348 340 332 325 316 308 304 299 288 277 257
74 71 67 65 66 67 66 67 70 75 80 85 86 86 84 82 78 74 73 75 74 73 75 76 75 73 72 70 68 68 68 66 64 64 65 68 71 74 74 73 72 71 69 67 65 62 61 59 57 57 55 52 49 47 42 38 35 31 25 19 13 6 1 359 357 356 358 360 357 353 350 348 347 350 354 354 352 343 329 317 313 309 301 293 278
80 80 78 73 69 68 66 64 61 60 63 70 76 80 82 83 82 80 80 80 78 76 77 77 75 74 74 73 70 68 68 67 66 66 66 66 68 71 72 72 72 72 72 70 67 64 62 60 57 56 54 51 49 46 42 38 34 30 24 17 11 5 1 358 356 353 352 351 350 350 350 350 350 350 350 349 349 347 338 327 320 313 306 301 290
Height
763 766 769 773 776 779 782 785 788 791 794 797 798 800 802 804 806 809 811 813 815 816 818 819 820 822 824 825 826 827 828 829 831 832 833 834 834 836 837 838 838 839 840 841 841 842 842 842 842 842 844 844 844 845 845 847 848 848 849 849 849 850 851 851 850 846 844 846 847 847 848 848 848 848 848 848 848 849 849 848 849 849 849 849 849
761 764 767 771 773 776 779 782 786 789 792 794 796 798 800 802 804 807 809 811 812 814 815 817 818 820 821 823 824 825 826 827 828 829 830 831 832 833 834 835 836 836 837 838 838 839 840 840 840 840 842 842 842 843 843 844 846 846 847 847 847 848 849 849 849 847 843 843 845 846 846 847 846 846 847 846 846 847 846 846 846 846 845 845 845
758 762 765 768 770 774 777 780 783 786 789 791 793 796 798 800 802 804 806 808 810 811 813 814 816 818 819 820 821 822 823 824 826 826 827 828 829 830 832 832 833 834 834 834 835 836 837 837 837 838 839 840 839 840 841 842 844 844 845 845 845 846 847 848 848 846 843 841 842 843 844 844 844 844 845 845 845 845 844 843 843 843 842 842 842
756 759 762 765 768 771 774 777 781 783 786 788 790 793 795 797 800 801 803 806 807 809 810 812 814 815 816 818 818 819 820 821 823 824 824 826 827 828 829 830 830 831 831 832 833 834 835 835 835 835 837 837 837 837 838 840 841 842 842 843 843 844 845 846 845 845 843 841 840 841 842 842 842 842 843 843 842 842 841 840 840 840 839 839 839
754 757 760 763 766 769 772 775 778 780 783 785 787 790 792 794 796 798 800 803 804 806 808 809 811 812 813 814 815 816 817 819 820 821 822 823 824 825 826 827 828 828 828 829 830 832 832 832 832 833 835 834 834 834 836 837 839 839 839 840 840 841 842 843 843 842 842 840 838 838 839 839 839 839 840 840 839 839 838 837 837 836 836 836 835
751 754 757 761 763 766 769 772 774 777 779 782 784 787 789 791 793 795 797 799 801 803 805 806 807 809 809 810 812 813 815 816 817 818 819 821 822 823 823 824 824 825 825 826 828 829 830 829 829 831 832 832 831 831 833 835 836 837 837 837 838 839 839 840 840 840 839 837 836 836 836 836 836 836 836 836 836 835 834 833 832 832 832 831 830
747 750 754 757 760 762 764 766 769 772 775 778 781 783 786 788 789 791 794 796 798 799 801 803 804 805 806 807 809 810 812 814 814 815 817 818 819 820 820 821 821 822 822 823 825 826 827 827 827 829 829 829 829 829 831 833 834 835 835 835 836 837 837 837 837 837 836 835 835 834 833 833 833 833 833 833 833 831 830 829 827 826 826 826 825
743 746 750 752 755 757 760 763 765 768 772 775 778 780 782 784 786 788 790 792 794 795 797 799 800 802 803 804 806 808 810 811 811 812 813 815 816 816 817 818 818 819 819 820 822 823 824 824 825 825 826 826 826 827 829 831 833 833 832 833 834 834 834 834 834 834 834 833 832 831 831 831 831 830 830 830 829 827 826 825 822 820 821 822 821
739 742 745 748 751 754 757 760 763 766 769 772 775 777 779 781 783 785 787 788 790 792 794 796 797 799 800 801 803 805 806 806 807 808 809 810 812 813 814 815 815 816 817 818 819 820 821 821 821 822 823 824 825 826 827 829 830 830 830 830 831 831 831 831 831 831 831 831 830 829 829 829 828 827 826 825 824 822 822 822 819 817 819 819 818
735 738 741 744 747 751 754 757 760 763 766 768 771 773 776 778 780 782 783 785 787 789 791 793 794 795 797 798 799 801 802 802 802 803 805 807 808 809 811 811 812 813 814 815 816 817 817 818 819 819 821 821 822 823 824 825 826 826 827 827 828 828 828 829 829 829 829 828 827 827 827 825 824 824 822 820 820 819 818 819 817 815 818 818 815
731 735 738 741 745 748 751 754 757 760 762 765 767 770 773 775 777 778 780 782 784 786 788 789 790 792 793 794 796 797 797 797 798 800 802 803 805 806 807 808 809 811 812 812 813 813 814 815 816 817 818 818 819 819 820 821 821 822 823 823 824 825 825 825 825 826 826 825 824 824 824 821 819 819 819 817 816 815 814 815 814 814 815 815 811
728 732 734 738 741 744 747 750 753 756 758 761 764 766 769 772 773 775 776 778 781 782 784 785 786 788 789 790 791 792 792 793 795 797 798 800 802 803 804 806 807 808 808 809 810 811 812 812 813 814 814 815 815 816 816 816 817 818 819 820 821 821 821 821 822 823 823 822 820 820 819 817 815 814 814 813 811 810 810 810 810 810 810 809 806
725 728 731 734 737 740 743 746 749 752 754 757 760 763 765 767 769 771 773 775 777 778 779 781 782 784 785 786 787 788 788 790 791 793 795 796 798 800 802 803 804 804 805 806 807 808 808 809 810 810 811 811 812 813 813 813 813 814 815 816 816 816 816 816 818 819 819 818 817 814 813 813 811 808 809 808 806 806 805 804 803 803 802 801 799
721 723 726 730 732 736 739 742 744 747 750 753 756 758 761 762 764 767 769 771 773 773 774 776 777 779 780 782 783 784 784 786 788 790 791 793 795 797 799 800 801 801 802 803 804 804 805 806 806 807 807 808 809 809 810 810 810 810 811 811 810 810 810 811 813 815 814 814 812 808 807 808 806 802 802 802 800 799 797 797 797 796 795 795 794
717 719 722 725 728 732 735 738 741 743 746 749 752 754 756 758 760 763 765 766 767 768 770 772 773 774 776 778 779 779 780 782 784 786 787 789 792 794 796 797 797 798 799 800 800 800 801 803 803 803 803 804 805 806 807 808 807 807 806 806 805 805 804 806 808 809 808 808 806 802 801 801 799 795 794 794 793 791 791 792 792 792 792 793 791
713 716 719 722 725 728 731 734 737 739 742 745 747 750 752 754 756 758 760 762 763 764 766 767 768 770 772 774 775 775 775 778 780 782 783 786 789 791 792 793 794 794 795 795 796 797 798 800 800 800 800 801 802 803 804 805 804 803 802 802 801 800 800 802 803 803 802 802 800 798 795 794 792 789 786 788 788 788 789 790 788 789 791 790 786
710 713 715 718 721 724 727 730 732 735 738 740 743 745 747 749 751 753 755 757 758 759 761 762 764 766 768 770 770 770 771 773 776 778 780 783 785 787 788 789 790 790 790 791 793 794 795 795 796 797 797 797 798 799 800 801 801 800 799 797 796 795 796 798 798 796 796 795 794 793 790 788 786 782 781 784 785 786 788 785 781 784 787 784 781
706 709 712 714 717 720 723 725 728 730 733 735 738 740 742 744 746 748 750 751 753 754 756 758 760 762 763 764 766 766 767 769 772 774 775 779 781 782 784 785 785 786 786 787 788 789 790 791 792 793 793 793 794 795 797 798 797 796 795 794 792 791 792 794 793 791 791 790 789 787 785 782 780 776 777 780 779 781 783 779 776 779 780 778 776
702 705 708 711 714 716 718 720 723 725 728 730 733 735 737 739 741 743 745 746 748 750 752 754 756 757 759 760 762 763 764 765 768 769 771 774 777 778 780 781 781 782 782 783 784 785 786 787 788 789 789 789 790 791 793 793 792 791 792 791 788 787 788 790 789 788 787 786 784 783 780 776 773 772 773 773 772 774 775 773 772 774 773 771 771
699 702 704 707 709 711 714 716 718 721 723 726 728 730 732 734 736 739 741 742 744 746 748 750 752 753 755 757 758 759 760 761 763 765 767 770 772 773 775 776 776 777 778 779 780 780 781 782 783 784 784 785 786 787 788 789 789 788 789 789 786 784 784 785 785 785 784 782 781 779 775 771 769 769 768 766 765 766 767 766 766 766 765 763 763
697 700 702 703 706 708 710 712 714 717 719 721 724 726 728 730 733 734 736 739 740 742 744 746 748 750 751 753 754 755 756 757 759 760 763 765 767 769 770 770 771 773 774 775 776 776 777 778 778 779 780 781 782 783 784 785 786 785 785 785 783 781 781 781 781 781 780 779 777 775 772 768 765 764 762 760 759 759 758 758 757 757 756 755 754
696 698 700 702 704 705 707 709 711 714 716 718 721 723 725 727 729 730 733 735 737 739 741 743 745 746 748 749 750 751 752 753 755 756 758 760 762 764 764 765 767 769 770 770 771 772 772 774 774 776 777 778 779 780 781 781 782 781 780 780 779 779 778 778 777 777 776 774 773 771 769 765 762 760 758 756 755 754 753 752 750 749 747 746 745
694 696 697 699 701 703 705 707 709 711 713 715 717 719 721 723 725 727 729 731 733 735 737 739 741 743 745 746 747 748 749 750 751 753 754 756 757 759 760 761 764 765 765 766 767 768 769 771 772 773 774 775 775 776 777 777 777 777 776 776 776 775 775 774 773 773 772 770 769 767 764 762 760 757 754 752 751 749 747 745 743 742 740 737 736
691 692 693 695 697 699 701 704 706 708 710 712 714 716 718 720 722 724 726 728 730 732 734 736 738 739 741 742 743 744 745 746 747 749 750 752 753 755 756 758 760 761 762 762 763 765 767 768 769 770 770 771 772 773 773 774 774 774 773 773 772 772 771 770 770 769 768 767 766 763 761 759 757 754 751 749 747 745 741 738 736 736 734 731 728
688 689 690 692 693 695 697 699 702 704 706 709 711 712 715 717 718 720 723 725 726 728 730 732 734 736 738 739 739 740 742 743 744 745 747 749 750 752 753 755 757 758 758 760 761 763 764 765 766 767 768 769 769 770 771 771 770 770 770 769 769 768 768 767 766 766 765 764 763 760 758 756 754 752 749 747 744 740 736 731 729 727 726 723 720
686 687 688 690 691 692 694 696 698 700 703 705 707 709 711 713 715 717 719 721 723 725 727 729 731 732 734 735 736 737 738 740 741 742 744 745 747 749 750 752 753 755 756 757 759 760 761 762 764 765 766 766 767 767 767 767 767 767 767 767 766 766 765 764 764 763 762 761 760 758 755 753 751 748 746 743 740 736 732 728 724 721 720 718 714
685 686 687 688 689 691 692 693 695 697 700 702 704 706 708 710 712 713 715 717 720 722 724 726 728 729 731 732 733 734 735 737 738 739 741 742 744 746 747 748 750 752 752 754 756 757 759 760 761 762 763 763 764 764 765 765 765 765 765 764 764 763 763 762 762 761 760 758 757 755 752 750 747 745 742 740 736 732 729 727 722 717 716 715 709
684 684 685 687 688 689 691 692 693 696 698 700 702 704 706 708 710 711 713 715 717 719 721 722 724 725 727 729 730 731 733 734 735 736 738 740 741 743 744 745 747 748 749 751 753 755 757 758 759 760 761 761 762 762 762 763 763 762 762 762 761 761 760 760 759 758 757 756 754 752 749 747 744 741 739 736 732 728 726 724 719 713 711 710 704
683 684 684 685 686 688 690 691 693 694 696 698 700 702 705 707 708 710 711 713 715 716 718 719 720 722 724 725 727 728 730 731 733 734 736 738 739 740 741 742 744 746 748 750 751 753 755 756 757 758 759 759 760 760 760 760 760 760 760 759 759 758 757 757 756 755 754 752 750 748 746 743 741 738 735 732 728 725 721 718 713 708 705 703 698
682 683 684 685 686 687 688 690 692 693 694 696 698 701 704 705 707 709 710 712 714 715 716 717 719 720 722 723 724 725 727 729 731 733 735 736 738 739 740 741 743 745 747 748 750 752 753 754 755 756 757 757 757 757 758 758 758 757 757 757 757 756 755 754 753 752 751 749 747 745 743 740 738 735 732 728 723 719 715 711 707 704 700 697 691
681 682 683 684 685 686 688 689 690 692 694 695 697 700 702 704 706 708 709 710 712 713 715 716 717 719 720 721 723 724 726 728 731 733 735 736 737 739 740 742 743 744 746 747 749 750 751 752 754 755 755 756 756 756 756 756 756 756 755 755 754 754 753 753 752 750 749 746 744 742 740 738 735 732 728 724 719 713 709 705 702 699 695 691 686
681 682 682 683 684 686 687 688 689 691 693 695 697 699 701 703 706 707 708 709 710 712 713 715 716 718 719 720 721 723 725 728 731 733 735 736 737 739 740 742 743 745 745 746 748 750 751 752 753 754 754 754 755 755 755 755 756 756 755 754 753 753 752 751 750 748 746 744 742 739 737 735 733 729 725 721 716 711 706 701 698 693 688 684 679
681 682 682 683 684 685 687 688 689 691 693 695 697 698 700 701 704 706 708 709 709 710 712 713 715 716 717 719 720 722 725 728 729 731 734 736 737 739 740 742 744 745 746 746 748 750 751 752 752 753 753 753 754 755 755 755 755 755 755 754 753 752 751 749 747 745 743 741 739 738 735 733 730 727 723 718 714 711 705 700 695 690 684 679 675
681 682 682 683 684 685 686 688 689 691 693 694 696 697 699 700 702 704 706 708 709 711 712 713 714 715 716 719 721 723 726 728 729 731 733 736 738 739 740 742 744 745 746 747 748 750 751 752 752 752 753 753 754 754 755 755 755 755 754 753 753 751 749 746 744 742 741 739 738 736 734 731 729 726 722 718 714 710 705 699 694 688 682 677 673
682 682 683 684 685 685 687 688 689 691 693 695 696 698 699 701 702 704 705 707 708 711 713 715 716 717 718 720 722 724 726 729 731 733 735 736 738 740 741 743 744 746 747 748 749 750 751 752 752 752 753 754 754 754 754 754 754 753 753 752 751 749 746 744 743 742 740 739 737 734 732 730 728 725 722 719 715 711 706 700 695 689 683 677 672
683 684 685 685 686 687 688 689 690 692 693 695 697 699 700 702 703 705 706 708 710 713 716 719 721 722 723 724 725 727 729 731 733 735 737 738 740 741 742 743 745 746 748 749 750 751 751 752 752 753 753 754 754 753 753 752 752 752 751 750 748 747 745 743 742 741 740 738 736 734 732 730 728 725 722 719 715 712 708 703 698 692 687 681 676
684 686 687 687 688 688 690 691 693 694 695 696 698 699 702 703 705 706 708 711 714 717 720 722 724 726 728 729 729 731 732 734 735 737 738 740 741 742 743 744 746 747 749 750 750 751 751 752 752 753 753 752 752 751 751 751 751 750 749 748 746 745 744 743 742 741 739 736 734 733 732 731 728 725 722 719 716 712 710 706 701 696 691 686 681
686 687 688 689 690 690 691 693 694 696 697 698 699 701 703 705 707 709 711 712 715 719 722 724 726 728 729 731 732 732 734 735 736 737 739 741 743 743 744 745 747 748 748 749 750 750 751 751 751 751 751 751 750 750 750 750 749 748 747 746 745 744 743 742 741 740 738 736 735 734 733 731 728 725 723 720 717 714 711 708 704 700 696 691 687
687 688 689 690 691 693 694 695 696 698 700 701 702 703 705 706 708 711 713 715 717 720 723 726 728 729 730 732 733 734 734 735 737 738 740 742 743 744 745 746 747 747 748 748 749 750 750 750 750 750 750 750 750 750 749 748 747 747 746 745 744 743 742 741 740 739 737 736 735 734 733 731 728 726 723 720 718 715 713 710 707 704 701 698 695
689 690 692 691 692 694 697 698 699 700 702 705 706 707 709 710 712 713 715 717 720 723 725 728 730 731 732 733 734 735 736 737 739 740 742 743 744 744 745 746 747 747 748 748 749 749 749 749 749 749 750 750 750 749 748 747 747 746 745 744 744 743 742 740 739 738 738 737 735 734 732 730 728 726 724 721 719 717 715 713 710 708 706 705 703
692 692 694 694 694 695 697 699 701 702 704 707 709 710 712 714 715 716 717 719 722 725 727 729 731 733 734 734 735 736 737 739 741 743 743 743 743 744 745 746 747 747 748 748 748 748 748 748 749 749 749 749 748 748 747 747 746 746 745 744 743 742 741 740 739 738 738 737 735 734 732 729 727 725 723 721 720 719 717 715 713 711 709 708 707
694 695 696 697 698 698 699 701 703 704 706 708 710 712 714 716 717 719 720 722 725 727 729 731 733 734 734 735 736 737 738 740 742 743 743 744 744 745 746 747 747 747 748 748 748 748 748 748 749 749 748 748 747 747 747 747 746 745 745 744 742 741 740 739 739 738 738 737 735 733 731 730 728 726 724 722 721 720 719 717 716 714 712 711 710
695 697 699 700 700 701 702 704 705 706 709 710 712 714 716 718 720 721 723 725 727 729 730 733 734 735 736 737 738 738 740 742 743 744 745 746 746 746 747 747 747 747 748 748 748 748 748 748 748 748 748 748 748 747 747 747 746 745 744 743 741 740 739 739 739 738 738 737 735 733 732 730 728 726 725 723 722 721 721 719 718 717 715 714 712
696 698 701 703 704 704 705 707 708 710 712 714 715 716 718 719 722 724 726 728 731 732 733 735 736 737 738 739 740 740 742 744 746 747 747 747 747 747 747 747 747 747 747 748 748 748 748 748 748 748 748 749 749 748 748 747 746 745 743 742 741 740 739 739 739 738 737 736 735 733 732 730 729 727 726 724 723 723 722 722 720 719 718 716 715
701 702 703 705 707 708 709 710 712 713 715 717 718 720 721 722 724 726 729 731 734 736 737 738 739 739 741 742 742 744 746 747 748 748 748 747 747 747 747 747 748 748 748 749 749 749 749 749 749 749 749 749 749 749 748 747 746 744 743 742 741 740 740 740 739 738 738 736 735 734 732 731 729 728 727 726 725 724 724 723 722 721 719 718 717
708 708 708 709 710 711 712 714 716 717 718 719 721 723 725 726 728 730 732 734 736 739 741 741 741 742 743 744 746 747 748 749 749 749 749 749 749 749 748 749 749 749 750 750 750 750 750 750 750 750 750 750 749 749 748 747 745 744 743 742 742 741 741 740 739 738 737 736 735 734 733 731 730 729 727 726 726 726 725 724 724 723 721 720 719
712 713 714 715 716 716 717 718 720 721 722 723 724 726 728 730 732 733 736 737 739 741 743 744 744 745 746 747 749 750 751 751 751 751 751 751 751 750 750 750 750 751 751 751 751 751 751 751 751 751 751 750 749 748 747 746 745 744 743 743 742 742 741 740 739 738 737 736 735 734 733 732 730 729 728 727 727 726 726 725 725 724 723 722 721
716 717 719 720 721 723 723 723 723 724 726 728 729 731 733 735 736 737 739 741 742 744 746 747 747 748 750 751 752 753 754 754 754 754 754 753 753 753 753 752 752 753 753 753 753 753 753 752 752 751 751 750 749 748 747 746 745 744 743 743 743 742 741 740 739 738 737 736 735 734 733 732 731 729 728 727 727 726 726 726 726 725 724 723 723
719 721 723 724 726 728 730 730 730 730 730 732 733 735 737 738 740 742 743 744 746 747 748 749 750 752 753 755 755 756 757 757 757 757 756 756 755 755 755 755 755 755 754 754 755 755 754 754 753 752 751 750 749 748 747 746 745 745 744 744 743 742 741 740 739 738 737 736 735 735 734 733 731 730 728 727 727 726 726 726 726 726 725 724 723
723 725 729 731 732 734 736 737 737 737 737 737 737 738 739 741 743 745 746 747 748 750 751 752 753 754 756 757 758 758 758 758 759 759 759 758 758 758 758 757 757 757 756 757 757 756 756 755 754 753 752 751 750 749 748 747 746 746 745 744 744 742 741 740 739 738 737 736 735 734 734 733 731 730 729 728 727 727 727 727 726 726 725 725 724
728 729 733 737 739 739 740 742 744 745 745 744 744 744 744 746 747 749 750 751 752 753 754 755 756 756 757 758 759 759 759 760 760 760 760 761 760 760 760 760 759 759 758 758 758 757 757 756 754 754 753 752 751 750 750 749 748 747 746 745 744 742 741 740 739 738 737 736 735 734 733 732 731 730 728 727 727 727 727 727 727 726 726 726 725